Sexton Summit, OR

2:35 PM PDT on October 18, 2019 (GMT -0700)
Sexton Summit

Weather History for KSXT - August, 2019

Change the Weather History Date:

Tuesday, August 20, 2019

  Actual Average Record
Temperature  
Mean Temperature 69 °F -  
Max Temperature 81 °F 73 °F 90 °F (2016)
Min Temperature 60 °F 52 °F 45 °F (2002)
Cooling Degree Days 4    
Growing Degree Days 19 (Base 50)    
Moisture  
Dew Point 50 °F    
Average Humidity 55    
Maximum Humidity 75    
Minimum Humidity 40    
Precipitation  
Precipitation 0.00 in - - ()
Sea Level Pressure  
Sea Level Pressure 29.94 in    
Wind  
Wind Speed 3 mph (South)    
Max Wind Speed 9 mph    
Max Gust Speed -    
Visibility 10 miles    
Events      
Averages and records for this station are not official NWS values.
T = Trace of Precipitation, MM = Missing Value Source: NWS Daily Summary

Daily Weather History Graph

Daily Weather History Graph

Search for Another Location

Airport or City:

Astronomy

Aug. 20, 2019 Rise Set
Actual Time 6:25 AM PDT 8:07 PM PDT
Civil Twilight 5:55 AM PDT 8:37 PM PDT
Nautical Twilight 5:18 AM PDT 9:13 PM PDT
Astronomical Twilight 4:39 AM PDT 9:52 PM PDT
Moon 10:52 PM PDT (8/20) 11:14 AM PDT (8/20)
Length of Visible Light 14h 42m
Length of Day
13h 42m
Waning Gibbous, 77% of the Moon is Illuminated
Aug 20
Waning Gibbous
Aug 23
Last Quarter
Aug 30
New
Sep 5
First Quarter
Sep 13
Full

Hourly Weather History & Observations

Time (PDT) Temp. Dew Point Humidity Pressure Visibility Wind Dir Wind Speed Gust Speed Precip Events Conditions
12:56 AM 63.0 °F 53.1 °F 70% 29.90 in 10.0 mi Calm Calm - N/A   Clear
1:56 AM 63.0 °F 53.1 °F 70% 29.89 in 10.0 mi Calm Calm - N/A   Clear
2:56 AM 62.1 °F 53.1 °F 72% 29.88 in 10.0 mi South 4.6 mph - N/A   Clear
3:56 AM 61.0 °F 52.0 °F 72% 29.88 in 10.0 mi SSE 6.9 mph - N/A   Clear
4:56 AM 61.0 °F 53.1 °F 75% 29.88 in 10.0 mi South 6.9 mph - N/A   Clear
5:56 AM 61.0 °F 53.1 °F 75% 29.89 in 10.0 mi SE 9.2 mph - N/A   Clear
6:56 AM 60.1 °F 51.1 °F 72% 29.91 in 10.0 mi SSE 6.9 mph - N/A   Clear
7:56 AM 64.0 °F 51.1 °F 63% 29.93 in 10.0 mi SSE 3.5 mph - N/A   Clear
8:56 AM 64.0 °F 52.0 °F 65% 29.94 in 10.0 mi South 3.5 mph - N/A   Clear
9:56 AM 66.9 °F 53.1 °F 61% 29.94 in 10.0 mi Calm Calm - N/A   Clear
11:56 AM 73.9 °F 51.1 °F 45% 29.94 in 10.0 mi Variable 3.5 mph - N/A   Clear
12:56 PM 75.9 °F 51.1 °F 42% 29.94 in 10.0 mi Variable 5.8 mph - N/A   Clear
1:56 PM 78.1 °F 52.0 °F 40% 29.93 in 10.0 mi Variable 6.9 mph - N/A   Clear
2:56 PM 77.0 °F 52.0 °F 42% 29.92 in 10.0 mi Calm Calm - N/A   Clear
3:56 PM 75.9 °F 52.0 °F 43% 29.93 in 10.0 mi Variable 3.5 mph - N/A   Clear
4:56 PM 75.0 °F 52.0 °F 44% 29.94 in 10.0 mi Variable 5.8 mph - N/A   Clear
5:56 PM 73.0 °F 50.0 °F 44% 29.95 in 10.0 mi Variable 3.5 mph - N/A   Clear
6:56 PM 69.1 °F 48.9 °F 49% 29.97 in 10.0 mi Variable 3.5 mph - N/A   Clear
7:56 PM 64.9 °F 46.9 °F 52% 29.98 in 10.0 mi NNW 4.6 mph - N/A   Clear
8:56 PM 64.9 °F 43.0 °F 45% 30.00 in 10.0 mi Variable 3.5 mph - N/A   Clear
9:56 PM 63.0 °F 39.9 °F 43% 30.01 in 10.0 mi WSW 4.6 mph - N/A   Clear
10:56 PM 63.0 °F 41.0 °F 45% 29.99 in 10.0 mi Calm Calm - N/A   Clear
11:56 PM 61.0 °F 39.0 °F 44% 29.99 in 10.0 mi Calm Calm - N/A   Clear